EN

Hourly Weather Ladosno

Today, 26 July, Monday

Time Temperature Precipitation Wind Pressure Humidity
00:00 +18°C° 0 mm 1 mps 750 mmHg 66%
01:00 +18°C° 0 mm 1 mps 750 mmHg 67%
02:00 +16°C° 0 mm 1 mps 751 mmHg 69%
03:00 +18°C° 0 mm 1 mps 751 mmHg 68%
04:00 +18°C° 0 mm 1 mps 751 mmHg 68%
05:00 +18°C° 0 mm 1 mps 751 mmHg 67%
06:00 +20°C° 0 mm 1 mps 751 mmHg 61%
07:00 +23°C° 0 mm 1 mps 751 mmHg 55%
08:00 +25°C° 0 mm 1 mps 751 mmHg 49%
09:00 +27°C° 0 mm 2 mps 751 mmHg 45%
10:00 +28°C° 0 mm 2 mps 751 mmHg 41%
11:00 +30°C° 0 mm 2 mps 751 mmHg 37%
12:00 +30°C° 0 mm 2 mps 751 mmHg 36%
13:00 +30°C° 0 mm 2 mps 751 mmHg 34%
14:00 +30°C° 0 mm 2 mps 751 mmHg 33%
15:00 +30°C° 0 mm 2 mps 751 mmHg 37%
16:00 +29°C° 0 mm 3 mps 750 mmHg 41%
17:00 +28°C° 0 mm 3 mps 750 mmHg 45%
18:00 +26°C° 0 mm 3 mps 750 mmHg 49%
19:00 +25°C° 0 mm 2 mps 750 mmHg 54%
20:00 +24°C° 0 mm 1 mps 750 mmHg 58%
21:00 +23°C° 0 mm 1 mps 750 mmHg 62%
22:00 +21°C° 0 mm 2 mps 751 mmHg 66%
23:00 +20°C° 0 mm 2 mps 751 mmHg 71%

Tomorrow, 27 July, Tuesday

Time Temperature Precipitation Wind Pressure Humidity
00:00 +19°C° 0 mm 2 mps 751 mmHg 73%
01:00 +18°C° 0 mm 2 mps 751 mmHg 76%
02:00 +18°C° 0 mm 2 mps 751 mmHg 79%
03:00 +18°C° 0 mm 2 mps 751 mmHg 80%
04:00 +17°C° 0 mm 2 mps 751 mmHg 80%
05:00 +17°C° 0 mm 2 mps 750 mmHg 81%
06:00 +20°C° 0 mm 2 mps 750 mmHg 71%
07:00 +22°C° 0 mm 3 mps 750 mmHg 61%
08:00 +26°C° 0 mm 3 mps 750 mmHg 52%
09:00 +27°C° 0 mm 3 mps 750 mmHg 48%
10:00 +28°C° 0 mm 3 mps 750 mmHg 45%
11:00 +29°C° 0 mm 4 mps 749 mmHg 42%
12:00 +29°C° 0 mm 4 mps 749 mmHg 42%
13:00 +29°C° 0 mm 4 mps 749 mmHg 42%
14:00 +29°C° 0 mm 4 mps 748 mmHg 42%
15:00 +29°C° 0 mm 4 mps 748 mmHg 44%
16:00 +28°C° 0 mm 4 mps 748 mmHg 46%
17:00 +28°C° 0 mm 4 mps 748 mmHg 48%
18:00 +27°C° 0 mm 4 mps 747 mmHg 52%
19:00 +26°C° 0 mm 4 mps 747 mmHg 55%
20:00 +24°C° 0 mm 3 mps 746 mmHg 59%
21:00 +22°C° 0.2 mm 3 mps 746 mmHg 67%
22:00 +21°C° 0.2 mm 3 mps 746 mmHg 75%
23:00 +20°C° 0.2 mm 3 mps 746 mmHg 83%

Day after tomorrow, 28 July, Wednesday

Time Temperature Precipitation Wind Pressure Humidity
00:00 +19°C° 0.2 mm 3 mps 745 mmHg 87%
01:00 +19°C° 0.2 mm 3 mps 745 mmHg 91%
02:00 +19°C° 0.2 mm 3 mps 745 mmHg 96%
03:00 +19°C° 0.2 mm 3 mps 744 mmHg 96%
04:00 +19°C° 0.2 mm 3 mps 744 mmHg 96%
05:00 +19°C° 0.2 mm 3 mps 744 mmHg 97%
06:00 +19°C° 0.2 mm 3 mps 743 mmHg 96%
07:00 +19°C° 0.2 mm 3 mps 743 mmHg 96%
08:00 +20°C° 0.2 mm 3 mps 743 mmHg 96%
09:00 +21°C° 0.1 mm 4 mps 743 mmHg 86%
10:00 +23°C° 0.1 mm 4 mps 743 mmHg 76%
11:00 +26°C° 0.1 mm 5 mps 743 mmHg 66%
12:00 +27°C° 0.1 mm 6 mps 743 mmHg 61%
13:00 +27°C° 0.1 mm 6 mps 743 mmHg 56%
14:00 +28°C° 0.1 mm 6 mps 743 mmHg 51%
15:00 +29°C° 0 mm 6 mps 743 mmHg 48%
16:00 +29°C° 0 mm 6 mps 743 mmHg 45%
17:00 +30°C° 0 mm 6 mps 743 mmHg 42%
18:00 +28°C° 0 mm 5 mps 743 mmHg 48%
19:00 +26°C° 0 mm 4 mps 743 mmHg 53%
20:00 +25°C° 0 mm 3 mps 743 mmHg 58%
21:00 +24°C° 0 mm 3 mps 743 mmHg 64%
22:00 +21°C° 0 mm 3 mps 743 mmHg 69%
23:00 +20°C° 0 mm 3 mps 743 mmHg 74%

29 July, Thursday

Time Temperature Precipitation Wind Pressure Humidity
00:00 +19°C° 0 mm 3 mps 743 mmHg 78%
01:00 +19°C° 0 mm 3 mps 744 mmHg 82%
02:00 +18°C° 0 mm 3 mps 744 mmHg 86%
03:00 +18°C° 0 mm 3 mps 744 mmHg 88%
04:00 +17°C° 0 mm 3 mps 744 mmHg 90%
05:00 +17°C° 0 mm 2 mps 744 mmHg 92%
06:00 +19°C° 0 mm 3 mps 744 mmHg 80%
07:00 +21°C° 0 mm 3 mps 744 mmHg 68%
08:00 +23°C° 0 mm 4 mps 744 mmHg 56%
09:00 +26°C° 0 mm 4 mps 744 mmHg 51%
10:00 +27°C° 0 mm 5 mps 744 mmHg 46%
11:00 +28°C° 0 mm 5 mps 744 mmHg 42%
12:00 +29°C° 0 mm 5 mps 744 mmHg 41%
13:00 +29°C° 0 mm 6 mps 744 mmHg 40%
14:00 +30°C° 0 mm 6 mps 744 mmHg 39%
15:00 +29°C° 0 mm 6 mps 744 mmHg 41%
16:00 +29°C° 0 mm 5 mps 744 mmHg 43%
17:00 +28°C° 0 mm 5 mps 743 mmHg 45%
18:00 +26°C° 0 mm 4 mps 743 mmHg 54%
19:00 +24°C° 0 mm 3 mps 743 mmHg 62%
20:00 +21°C° 0 mm 2 mps 743 mmHg 70%
21:00 +20°C° 0 mm 2 mps 743 mmHg 75%
22:00 +19°C° 0 mm 2 mps 744 mmHg 80%
23:00 +18°C° 0 mm 2 mps 744 mmHg 85%

30 July, Friday

Time Temperature Precipitation Wind Pressure Humidity
00:00 +18°C° 0 mm 2 mps 744 mmHg 87%
01:00 +17°C° 0 mm 2 mps 744 mmHg 89%
02:00 +17°C° 0 mm 2 mps 744 mmHg 91%
03:00 +18°C° 0 mm 1 mps 744 mmHg 91%
04:00 +18°C° 0 mm 1 mps 744 mmHg 91%
05:00 +18°C° 0 mm 1 mps 744 mmHg 91%
06:00 +20°C° 0 mm 1 mps 744 mmHg 81%
07:00 +22°C° 0 mm 1 mps 744 mmHg 71%
08:00 +25°C° 0 mm 2 mps 744 mmHg 61%
09:00 +26°C° 0 mm 2 mps 744 mmHg 52%
10:00 +28°C° 0 mm 2 mps 743 mmHg 44%
11:00 +29°C° 0 mm 3 mps 743 mmHg 36%
12:00 +30°C° 0 mm 3 mps 743 mmHg 35%
13:00 +30°C° 0 mm 3 mps 743 mmHg 34%
14:00 +30°C° 0 mm 3 mps 742 mmHg 33%
15:00 +30°C° 0 mm 3 mps 742 mmHg 35%
16:00 +29°C° 0 mm 4 mps 742 mmHg 38%
17:00 +29°C° 0 mm 4 mps 742 mmHg 40%
18:00 +27°C° 0 mm 3 mps 741 mmHg 46%
19:00 +25°C° 0 mm 3 mps 741 mmHg 53%
20:00 +23°C° 0 mm 2 mps 741 mmHg 59%
21:00 +23°C° 0 mm 2 mps 741 mmHg 62%
22:00 +21°C° 0 mm 3 mps 740 mmHg 64%
23:00 +20°C° 0 mm 3 mps 740 mmHg 66%

31 July, Saturday

Time Temperature Precipitation Wind Pressure Humidity
00:00 +20°C° 0.1 mm 3 mps 740 mmHg 70%
01:00 +20°C° 0.1 mm 3 mps 740 mmHg 75%
02:00 +20°C° 0.1 mm 2 mps 740 mmHg 79%
03:00 +19°C° 0.7 mm 3 mps 740 mmHg 85%
04:00 +19°C° 0.7 mm 3 mps 739 mmHg 90%
05:00 +19°C° 0.7 mm 4 mps 739 mmHg 96%
06:00 +19°C° 0.2 mm 4 mps 739 mmHg 94%
07:00 +20°C° 0.2 mm 4 mps 739 mmHg 92%
08:00 +20°C° 0.2 mm 4 mps 739 mmHg 91%
09:00 +22°C° 0.1 mm 4 mps 739 mmHg 76%
10:00 +25°C° 0.1 mm 5 mps 739 mmHg 62%
11:00 +28°C° 0.1 mm 5 mps 739 mmHg 47%
12:00 +28°C° 0 mm 6 mps 739 mmHg 42%
13:00 +29°C° 0 mm 6 mps 739 mmHg 37%
14:00 +29°C° 0 mm 7 mps 739 mmHg 32%
15:00 +28°C° 0 mm 7 mps 739 mmHg 35%
16:00 +27°C° 0 mm 6 mps 740 mmHg 38%
17:00 +26°C° 0 mm 6 mps 740 mmHg 41%
18:00 +25°C° 0 mm 5 mps 740 mmHg 46%
19:00 +23°C° 0 mm 4 mps 741 mmHg 51%
20:00 +21°C° 0 mm 3 mps 741 mmHg 56%
21:00 +20°C° 0 mm 3 mps 741 mmHg 62%
22:00 +18°C° 0 mm 3 mps 741 mmHg 68%
23:00 +17°C° 0 mm 3 mps 742 mmHg 74%
Show more